Flag for Paraguay Weather past 2 weeks in Asuncion, Paraguay

Now
70 °F

Mostly cloudy.


Feels Like: 70 °F
Forecast: 67 / 73 °F
Wind: 5 mph from South

Location: Asuncion / Aeropuerto

Current Time: May 26, 2015 at 1:07:25 AM

Latest Report: May 26, 2015 at 12:00 AM


Visibility: N/A

Pressure: 29.95 "Hg

Humidity: 94%

Dew point: 68 °F

Location of AsuncionLocation

Historic Weather in Asuncion — Graph

°F

Asuncion temperature yesterday

Maximum temperature yesterday: 75 °F (at 3:00 PM)
Minimum temperature yesterday: 70 °F (at 7:00 AM)
Average temperature yesterday: 72 °F

Past Weeks' High & Low Weather Summary

 TemperatureHumidityPressure
High102 °F (May 23, 3:00 PM)100% (May 12, 3:00 AM)30.18 "Hg (May 12, 3:00 AM)
Low54 °F (May 12, 5:00 AM)40% (May 23, 3:00 PM)29.71 "Hg (May 23, 5:00 PM)
Average71 °F86%30.00 "Hg
* Reported Midnight between May 10 and May 11 — Midnight between May 25 and May 26, Asuncion, Weather by CustomWeather, © 2015

Note: Actual official high and low records may vary slightly from our data, if they occured in-between our weather recording intervals... More about our weather records

Advertising

Asuncion weather history for previous 24 hours

 ConditionsComfort  
Time TempWeatherWind HumidityBarometerVisibility
12:00 AM
Tue, May 26
70 °FMostly cloudy.5 mph94%29.95 "HgN/A
11:00 PM
Mon, May 25
70 °FMostly cloudy.6 mph94%29.95 "HgN/A
10:00 PM72 °FMostly cloudy.7 mph88%29.98 "HgN/A
9:00 PM72 °FMostly cloudy.8 mph88%29.98 "HgN/A
8:00 PM72 °FDrizzle. Mostly cloudy.8 mph94%29.98 "HgN/A
7:00 PM72 °FDrizzle. Mostly cloudy.6 mph94%29.95 "Hg6 mi
6:00 PM73 °FDrizzle. Mostly cloudy.7 mph89%29.95 "Hg5 mi
5:00 PM73 °FMostly cloudy.7 mph89%29.92 "HgN/A
4:00 PM73 °FMore clouds than sun.8 mph89%29.92 "HgN/A
3:00 PM75 °FMostly cloudy.5 mph83%29.92 "HgN/A
12:00 PM73 °FLow clouds.6 mph89%29.98 "HgN/A
11:00 AM72 °FLow clouds.6 mph88%29.98 "HgN/A
10:00 AM72 °FLow clouds.9 mph94%29.98 "HgN/A
9:30 AM72 °FLow clouds.10 mph94%29.98 "HgN/A
9:00 AM70 °FDrizzle. Low clouds.8 mph100%29.98 "Hg6 mi
8:30 AM70 °FDrizzle. Low clouds.8 mph100%29.98 "Hg2 mi
8:00 AM70 °FDrizzle. Low clouds.7 mph100%29.98 "Hg4 mi
7:15 AM70 °FDrizzle. Low clouds.8 mph100%29.95 "Hg1 mi
7:00 AM70 °FDrizzle. Low clouds.9 mph100%29.95 "Hg2 mi
6:00 AM72 °FLow clouds.7 mph94%29.92 "HgN/A
5:00 AM72 °FDrizzle. Low clouds.8 mph94%29.92 "HgN/A
4:00 AM72 °FDrizzle. Low clouds.6 mph94%29.92 "HgN/A
1:00 AM72 °FDrizzle. Overcast.7 mph100%29.92 "HgN/A
Weather by CustomWeather, © 2015

See weather overviewHow to use our weather pages